Weather observations for the past three days for
Philadelphia, Philadelphia International Airport
Imperial (Metric)
Date Time (edt) Wind (mph) Vis. (mi.) Weather Sky Cond. Temperature (ºF) Relative Humidity Wind Chill (°F) Heat Index (°F) Pressure Precipitation (in)
Air Dwpt 6 hour altimeter (in) sea level (mb) 1 hr 3 hr 6 hr
Max. Min.
13 15:54 S 8 G 17 10.00 Mostly Cloudy BKN055 BKN300 86 62.1 45% 87 29.97 1014.8
13 14:54 S 12 10.00 Mostly Cloudy SCT055 BKN300 86 60.1 42% 86 29.98 1015.3
13 13:54 SW 12 10.00 Mostly Cloudy SCT060 BKN300 86 57 86 70 37% 85 30 1015.8
13 12:54 SW 10 10.00 Partly Cloudy SCT055 SCT300 84 60.1 44% 84 30.01 1016.1
13 11:54 SW 8 10.00 Partly Cloudy SCT040 SCT300 82 62.1 51% 83 30.03 1016.7
13 10:54 SW 10 10.00 Partly Cloudy FEW033 SCT300 80.1 64 58% 82 30.03 1016.9
13 09:54 SW 7 10.00 A Few Clouds FEW300 75.9 64.9 69% 78 30.03 1017.0
13 08:54 SW 3 10.00 A Few Clouds FEW300 73 64.9 76% 30.05 1017.4
13 07:54 S 3 10.00 A Few Clouds FEW300 70 63 70 64 79% 30.04 1017.2
13 06:54 Calm 10.00 A Few Clouds FEW300 66.9 63 87% 30.04 1017.2
13 05:54 Calm 10.00 A Few Clouds FEW200 64 61 90% 30.03 1016.7
13 04:54 Calm 10.00 A Few Clouds FEW150 64.9 61 87% 30.01 1016.2
13 03:54 SW 6 10.00 Fair CLR 66.9 61 81% 30.02 1016.3
13 02:54 S 3 10.00 Fair CLR 66 61 84% 30.01 1016.1
13 01:54 SW 3 10.00 Fair CLR 68 61 78.1 66.9 78% 30.01 1016.2
13 00:54 Calm 10.00 Fair CLR 68 61 78% 30.02 1016.5
12 23:54 S 7 10.00 Fair CLR 69.1 59 70% 30.02 1016.6
12 22:54 SW 7 10.00 Fair CLR 70 57 64% 30.02 1016.6
12 21:54 SW 10 10.00 Partly Cloudy SCT280 73 55 53% 30.02 1016.4
12 20:54 S 6 10.00 Partly Cloudy FEW075 SCT280 75 53.1 46% 78 30 1015.7
12 19:54 SW 9 10.00 Mostly Cloudy SCT075 SCT200 BKN280 78.1 51.1 80.1 77 39% 79 30 1015.7
12 18:54 SW 8 10.00 Mostly Cloudy BKN075 BKN200 BKN280 79 48 34% 79 29.99 1015.5
12 17:54 S 6 10.00 Mostly Cloudy BKN070 BKN200 BKN280 78.1 48.9 36% 79 29.99 1015.4
12 16:54 W 6 10.00 Mostly Cloudy BKN070 BKN200 BKN260 80.1 48.9 34% 79 30 1015.7
12 15:54 Vrbl 7 10.00 Mostly Cloudy BKN065 BKN200 BKN260 78.1 48.9 36% 79 30 1015.8
12 14:54 W 5 10.00 Mostly Cloudy SCT065 BKN200 BKN260 78.1 50 37% 79 30.01 1016.2
12 13:54 W 10 10.00 Mostly Cloudy BKN060 BKN200 BKN260 78.1 50 78.1 66.9 37% 79 30.03 1016.7
12 12:54 N 9 10.00 Mostly Cloudy SCT060 SCT200 BKN260 75.9 50 40% 78 30.03 1017.0
12 11:54 NW 9 10.00 Mostly Cloudy SCT055 SCT210 BKN260 75 51.1 43% 78 30.04 1017.3
12 10:54 Calm 10.00 Mostly Cloudy SCT045 SCT210 BKN260 73.9 51.1 45% 30.05 1017.5
12 09:54 W 7 10.00 Mostly Cloudy FEW040 FEW210 BKN260 72 54 53% 30.06 1017.8
12 08:54 Calm 10.00 Mostly Cloudy BKN260 70 54 57% 30.06 1017.7
12 07:54 N 3 10.00 Mostly Cloudy FEW055 FEW140 BKN260 66.9 54 66.9 62.1 63% 30.05 1017.6
12 06:54 NW 6 10.00 Mostly Cloudy SCT055 SCT140 BKN260 63 54 73% 30.05 1017.7
12 05:54 NW 6 10.00 Mostly Cloudy BKN060 BKN140 BKN260 62.1 54 75% 30.05 1017.4
12 04:54 Vrbl 3 10.00 Mostly Cloudy SCT060 BKN150 BKN250 63 53.1 70% 30.03 1016.8
12 03:54 NW 5 10.00 A Few Clouds FEW090 63 54 73% 30.02 1016.4
12 02:54 N 5 10.00 Fair CLR 63 54 73% 30.01 1016.1
12 01:54 NW 3 10.00 A Few Clouds FEW065 FEW100 64.9 54 71.1 64 68% 30.01 1016.3
12 00:54 W 3 10.00 A Few Clouds FEW065 FEW100 64.9 55 70% 30.01 1016.2
11 23:54 NW 5 10.00 A Few Clouds FEW090 66.9 55 66% 30.01 1016.1
11 22:54 NW 7 10.00 Partly Cloudy SCT090 69.1 55 61% 30 1015.7
11 21:54 NW 7 10.00 Overcast BKN090 OVC180 70 54 57% 29.99 1015.4
11 20:54 NW 6 10.00 Mostly Cloudy FEW055 BKN090 BKN280 71.1 54 55% 29.96 1014.5
11 19:54 NW 7 10.00 Mostly Cloudy SCT060 BKN090 BKN130 BKN280 71.1 53.1 75 71.1 53% 29.95 1014.2
11 18:54 W 6 10.00 Mostly Cloudy BKN060 BKN090 BKN130 72 53.1 52% 29.95 1014.1
11 17:54 NW 6 10.00 Overcast BKN065 BKN090 BKN130 OVC260 72 52 50% 29.94 1013.7
11 16:54 Vrbl 6 10.00 Overcast BKN055 BKN075 BKN130 OVC260 72 51.1 48% 29.94 1013.7
11 15:54 NW 8 10.00 Mostly Cloudy SCT047 BKN080 BKN140 BKN260 73 51.1 46% 29.94 1013.6
11 14:54 NW 7 10.00 Mostly Cloudy SCT045 BKN075 BKN130 BKN260 72 52 50% 29.94 1013.6
11 13:54 N 6 10.00 Mostly Cloudy BKN048 BKN085 BKN260 73 51.1 73.9 66 46% 29.93 1013.5
11 12:54 Vrbl 6 10.00 Overcast FEW060 BKN080 OVC095 73 53.1 50% 29.94 1013.6
11 11:54 Vrbl 6 10.00 Overcast SCT055 OVC095 72 52 50% 29.94 1013.7
11 10:54 E 7 10.00 Mostly Cloudy FEW042 BKN100 71.1 51.1 49% 29.94 1013.8
11 09:54 N 10 10.00 Mostly Cloudy BKN100 68 51.1 55% 29.94 1013.7
11 08:54 E 7 10.00 Mostly Cloudy BKN110 66.9 51.1 57% 29.93 1013.6
11 07:54 NE 14 10.00 Partly Cloudy SCT120 SCT220 66 50 66.9 62.1 56% 29.92 1012.9
11 06:54 NE 8 10.00 Partly Cloudy FEW065 SCT220 64 50 60% 29.9 1012.3
11 05:54 NE 10 10.00 Partly Cloudy SCT075 63 50 63% 29.88 1011.8
11 04:54 N 7 10.00 Overcast OVC080 64.9 50 59% 29.86 1011.0
11 03:54 N 3 10.00 Overcast BKN080 OVC120 66 48.9 54% 29.86 1011.0
11 02:54 N 6 10.00 Overcast BKN070 OVC100 66 48.9 54% 29.85 1010.6
11 01:54 N 6 10.00 Mostly Cloudy BKN110 66.9 48.9 73.9 66 53% 29.83 1010.2
11 00:54 N 7 10.00 Partly Cloudy SCT120 66.9 48 51% 29.83 1009.9
10 23:54 N 7 10.00 Mostly Cloudy BKN130 66.9 48.9 53% 29.82 1009.7
10 22:54 NW 7 10.00 A Few Clouds FEW090 FEW120 70 46.9 44% 29.8 1009.1
10 21:54 NW 8 10.00 Fair CLR 72 46.9 41% 29.78 1008.3
10 20:54 NW 7 10.00 A Few Clouds FEW060 FEW110 73 46.9 40% 29.75 1007.3
10 19:54 NW 13 10.00 Partly Cloudy FEW060 SCT110 73.9 46.9 77 73.9 38% 29.73 1006.6
10 18:54 W 10 10.00 Partly Cloudy FEW060 SCT095 75.9 46.9 36% 78 29.71 1006.1
10 17:54 NW 13 G 22 10.00 Partly Cloudy SCT065 SCT095 77 48 36% 78 29.71 1005.9
10 16:54 NW 12 10.00 Partly Cloudy SCT065 SCT090 77 48 36% 78 29.72 1006.2
Date Time (edt) Wind (mph) Vis. (mi.) Weather Sky Cond. Air Dwpt Max. Min. Relative Humidity Wind Chill (°F) Heat Index (°F) altimeter (in) sea level (mb) 1 hr 3 hr 6 hr
6 hour
Temperature (ºF) Pressure Precipitation (in)